Vertical_Velocity
2 -1 1 3 4 2 2 3 3 -1 5 1 1 0 -0 1 1 2 0 2 -2 -2 -2 -3 -2 -4 -3 10 -15 3 10 5 -3 -4 0 -2 -6 -9 1 2 -7 -13 2 -8 -2 -4 -5
4 2 -1 1 1 4 -0 0 2 2 1 3 1 1 -0 -1 0 -0 1 -2 -3 -2 -2 -3 -5 -2 1 6 -2 -9 2 14 -3 -2 -1 -3 5 -11 -8 -0 -11 3 -9 -8 -2 0 -5
3 4 2 -2 1 2 3 -0 -1 3 -1 1 3 2 -1 -0 -1 -1 0 -1 -1 -4 -1 -4 -5 -5 14 -17 11 -12 -2 12 -1 -3 -1 -3 -1 -8 -4 -4 -8 1 -9 -2 0 11 2
3 6 2 1 1 1 0 1 0 -3 2 0 -1 1 -0 -0 0 -1 1 -1 -1 -2 -2 -1 -3 -3 13 -4 6 -9 -3 9 -1 -3 3 -2 -4 -3 -8 5 -6 -4 -11 -16 37 6 20
3 1 5 1 1 2 2 1 0 1 0 -3 0 2 -1 2 -2 0 1 2 -0 -4 -2 -2 -4 -1 13 -4 1 2 -5 1 -2 0 -2 -4 -4 3 -0 -2 -1 0 2 -3 3 1 6
-1 3 1 4 3 -0 3 4 -0 1 -1 0 -0 1 1 -1 -0 -0 2 -1 -2 -1 -1 -2 -4 -7 7 -0 -2 -3 3 -4 -2 -2 3 2 -5 -3 2 -7 13 3 0 -1 0 15 -3
2 -3 0 2 3 0 2 -0 3 2 -1 2 -3 2 -0 1 -1 0 2 -2 -4 -3 -2 -4 1 1 2 -4 3 -3 -3 2 -2 -5 6 -2 -18 9 14 -3 -1 -3 -8 -11 -3 14 -10
0 -1 1 2 1 0 4 8 3 2 2 -0 2 1 -1 0 -1 2 5 -5 -3 -5 -6 3 -1 8 -13 -2 6 -2 -8 -0 -5 5 -13 -15 4 15 -3 -6 -6 -2 -5 -14 2 16 -3
-2 2 2 -0 1 8 2 6 2 3 3 2 -1 2 -0 0 -1 1 6 -6 2 -6 -12 14 5 0 -1 -14 -4 6 -5 -3 1 -3 1 -28 30 0 -4 -1 -7 0 -12 14 3 7 -8
-1 -2 2 -3 1 1 6 7 -4 9 2 -0 1 0 3 0 3 -1 3 0 -3 -8 -21 11 11 4 -1 -0 1 -13 6 -1 2 3 -2 -33 30 4 -1 -10 -4 -17 22 5 6 6 -16
0 1 -1 -1 1 3 10 11 5 0 3 2 0 2 1 -0 4 -5 2 1 1 -9 -31 -6 3 -2 -1 -4 -4 6 -6 -4 2 2 -2 13 6 5 -7 4 7 4 -5 2 4 0 5
-5 -7 3 1 1 3 8 10 21 6 6 3 3 1 -3 10 0 -4 3 0 0 -6 -2 -5 1 -0 0 -0 -5 -2 1 -2 4 3 0 1 -0 -2 -2 6 -17 17 5 2 6 12 -26
-4 -3 -1 -1 3 4 8 7 9 19 -0 3 5 5 1 -1 -1 0 2 0 -8 2 -7 -0 -3 0 3 0 1 -4 -2 5 5 8 2 3 6 6 -1 0 -5 6 7 -1 4 -30 -15
-3 -2 0 0 4 3 -5 3 -6 17 -1 5 5 3 0 -0 -1 0 -1 -2 -1 -3 -2 2 -0 2 -1 -2 -1 -2 -1 -4 0 12 11 -1 -9 6 7 -6 3 -3 4 -15 -25 -4 1
-3 -0 2 3 3 -5 2 4 17 51 3 6 47 -2 4 -1 -1 -0 -2 2 3 1 2 -0 4 -6 -1 -1 -1 1 2 3 0 -2 -3 -2 -7 -1 -6 8 0 -9 -31 26 7 9 -3
-1 0 -0 3 3 3 -1 3 11 12 9 23 -3 2 5 -2 -3 -1 -3 4 -1 -3 -3 2 -1 -1 4 2 -4 2 -3 3 -1 -1 0 -7 -4 20 4 -1 -5 5 4 -16 -6 -10 -10
3 1 4 1 2 4 10 13 5 14 -3 19 -4 2 0 3 -4 -3 4 -1 1 -2 -1 2 -1 6 4 0 -1 4 -4 -3 -2 0 -2 -3 4 28 44 -15 -17 -10 -4 -23 2 -9 42
2 2 1 -2 -0 13 -11 10 17 -3 -2 11 47 -7 3 -1 -4 1 12 -4 1 -4 -1 -1 -0 7 -2 -1 1 -1 -5 -3 -1 -5 -4 -3 7 11 1 -9 -18 -5 17 2 -12 -8 -11
4 0 0 -2 -1 13 -4 -1 -5 9 6 90 17 10 -1 -4 -5 3 4 -1 -1 -2 0 1 -0 1 0 4 -6 -5 -9 -2 -2 -1 2 2 2 9 2 12 -2 -6 -3 -29 12 14 37
-2 1 -1 -2 0 14 7 2 10 -3 -2 43 6 -2 -12 -2 -1 3 -3 0 0 -2 2 0 2 -1 -2 1 2 2 9 -6 -3 -2 -0 6 8 15 -4 5 10 7 5 6 24 90 16
2 1 -0 3 0 4 2 -1 4 23 22 12 3 -7 8 2 16 -0 -0 1 -1 -0 -1 1 5 0 -4 -6 5 -11 -4 -2 -1 -2 -5 -3 4 1 -11 -3 -7 7 2 19 38 32 10
1 2 -1 1 -9 8 -5 0 11 28 42 -1 -1 -1 -4 11 0 0 2 2 -0 -1 -0 3 3 -2 -2 -3 -2 2 1 -2 -6 6 -1 8 31 39 2 7 16 -0 26 -7 8 15 9
-1 1 -5 -0 -3 -5 -4 -3 -1 -7 -18 12 -5 -0 2 7 0 1 -0 -3 -3 -2 -1 1 2 1 0 -4 -5 -3 1 6 -4 -5 -1 3 12 8 9 -1 -8 4 -2 3 3 8 -0
-3 -1 3 -4 -2 -4 -3 17 4 9 -10 -21 -6 9 5 2 -1 2 -1 -1 0 0 0 -2 -0 8 -2 -1 -3 -1 -3 -1 1 -1 -1 1 5 -2 -1 0 0 -3 1 3 5 1 1
-4 0 -3 1 -3 -2 3 4 17 40 7 5 5 -1 0 -0 1 -4 -0 2 -0 -2 1 1 1 2 2 -1 -2 -4 -7 -6 -4 1 3 -2 -1 -2 -0 0 6 4 1 -1 3 -3 -0
-0 -3 -5 2 5 -1 2 -3 3 4 -2 1 -1 -2 -1 1 0 1 -0 0 2 -1 1 7 2 -0 2 -0 -1 -0 -4 -1 -2 1 -4 -3 1 -4 -6 -3 -3 0 0 -2 -3 -6 -2
-2 1 -1 -6 0 -2 0 4 10 3 1 1 4 -1 0 0 -1 -1 1 1 1 2 2 1 7 -1 -1 1 -1 -1 -3 -1 -1 0 3 -0 -1 -1 -2 0 4 4 -3 -2 -1 1 2
-2 -0 0 1 0 -1 -2 4 -4 -2 1 3 3 1 1 2 -3 -0 1 1 1 -0 4 2 4 -3 -3 -4 0 0 2 -3 -3 -1 -0 0 -3 1 -0 -1 6 -3 -1 0 -1 -2 -3
-1 -6 -3 -1 -0 -1 -6 -3 10 -6 -2 4 -1 -2 2 -1 2 -0 0 2 6 2 8 2 -0 -1 1 -4 1 0 -0 2 5 2 0 -0 5 1 -5 -1 -3 -3 -1 -2 -1 -0 -1
Height
5708 5708 5708 5709 5709 5710 5711 5713 5715 5717 5719 5720 5720 5721 5721 5723 5723 5724 5724 5725 5724 5724 5724 5724 5723 5723 5723 5724 5727 5725 5728 5729 5730 5731 5732 5735 5739 5741 5745 5748 5749 5754 5757 5759 5767 5770 5772
5701 5699 5700 5700 5701 5702 5703 5704 5707 5708 5709 5711 5712 5713 5714 5715 5715 5717 5717 5717 5717 5716 5716 5715 5715 5715 5715 5717 5715 5714 5717 5720 5721 5722 5724 5726 5729 5731 5734 5737 5740 5745 5748 5753 5757 5762 5764
5692 5691 5689 5690 5690 5692 5693 5694 5696 5698 5700 5701 5703 5704 5705 5706 5707 5709 5709 5710 5709 5709 5708 5707 5707 5708 5707 5706 5706 5707 5706 5708 5708 5711 5715 5717 5718 5721 5724 5727 5731 5735 5739 5745 5750 5754 5756
5681 5680 5680 5679 5679 5680 5682 5684 5685 5687 5689 5691 5694 5696 5697 5697 5699 5700 5701 5701 5701 5701 5701 5700 5699 5700 5698 5696 5697 5695 5696 5699 5698 5699 5701 5704 5708 5712 5715 5718 5722 5725 5729 5734 5741 5744 5749
5668 5668 5667 5668 5668 5668 5670 5672 5674 5676 5678 5680 5683 5685 5687 5689 5690 5691 5692 5693 5693 5692 5693 5692 5691 5691 5690 5689 5688 5686 5685 5686 5686 5688 5690 5692 5695 5699 5703 5706 5710 5712 5715 5721 5728 5733 5736
5654 5654 5654 5654 5654 5656 5657 5659 5661 5663 5666 5668 5672 5675 5677 5679 5681 5682 5683 5683 5683 5683 5684 5684 5682 5683 5681 5680 5677 5676 5676 5675 5674 5675 5678 5682 5683 5688 5689 5690 5695 5698 5704 5710 5720 5726 5724
5641 5640 5639 5638 5638 5639 5642 5645 5647 5649 5652 5656 5659 5663 5666 5668 5670 5673 5674 5674 5675 5677 5676 5675 5675 5672 5669 5668 5666 5665 5665 5663 5663 5662 5664 5666 5671 5672 5672 5677 5681 5687 5692 5698 5708 5716 5717
5625 5622 5620 5620 5620 5621 5624 5628 5631 5634 5638 5642 5645 5650 5654 5657 5660 5663 5664 5664 5665 5666 5668 5667 5665 5663 5657 5656 5656 5653 5651 5650 5649 5649 5647 5652 5661 5657 5660 5664 5667 5673 5679 5688 5697 5703 5706
5605 5602 5599 5598 5598 5600 5603 5606 5611 5618 5623 5628 5632 5637 5642 5645 5649 5652 5655 5655 5655 5656 5657 5659 5657 5652 5648 5644 5642 5641 5638 5637 5636 5632 5632 5639 5644 5640 5643 5648 5654 5661 5668 5680 5687 5692 5697
5579 5575 5573 5571 5573 5576 5579 5584 5587 5597 5605 5613 5618 5624 5630 5634 5640 5643 5645 5647 5646 5647 5646 5649 5647 5643 5638 5634 5633 5625 5625 5622 5620 5620 5618 5625 5626 5628 5631 5637 5644 5650 5665 5671 5677 5682 5688
5550 5543 5540 5541 5543 5549 5556 5564 5569 5574 5585 5596 5604 5611 5617 5624 5629 5633 5636 5638 5638 5639 5636 5637 5634 5628 5624 5621 5619 5613 5610 5606 5607 5607 5604 5614 5615 5615 5617 5634 5634 5651 5652 5659 5666 5672 5677
5526 5518 5512 5511 5514 5521 5531 5542 5556 5560 5568 5578 5589 5598 5606 5615 5618 5624 5627 5629 5630 5632 5628 5627 5623 5617 5612 5607 5603 5600 5597 5594 5594 5592 5591 5598 5599 5602 5610 5617 5623 5638 5642 5648 5656 5661 5662
5502 5494 5490 5488 5491 5498 5507 5521 5537 5545 5557 5565 5575 5584 5594 5603 5609 5614 5618 5622 5624 5624 5621 5619 5614 5607 5602 5597 5592 5587 5583 5582 5582 5583 5583 5586 5591 5593 5598 5605 5614 5619 5632 5639 5645 5649 5655
5482 5474 5471 5470 5474 5479 5487 5502 5523 5537 5546 5556 5566 5573 5583 5593 5601 5605 5610 5615 5617 5616 5612 5610 5605 5598 5593 5587 5582 5575 5572 5572 5575 5577 5577 5577 5581 5584 5591 5597 5607 5614 5624 5633 5638 5641 5656
5464 5458 5456 5458 5463 5466 5478 5494 5512 5524 5538 5549 5561 5565 5575 5583 5592 5598 5603 5608 5610 5607 5606 5603 5597 5590 5585 5579 5573 5570 5569 5570 5570 5571 5571 5571 5574 5576 5581 5589 5596 5605 5610 5635 5636 5644 5651
5452 5447 5446 5450 5454 5461 5472 5488 5505 5519 5531 5544 5550 5559 5568 5575 5584 5590 5597 5603 5601 5599 5599 5595 5591 5585 5579 5573 5569 5564 5564 5565 5566 5567 5566 5568 5568 5572 5578 5582 5587 5594 5618 5624 5632 5642 5644
5444 5440 5441 5444 5447 5458 5470 5486 5500 5513 5525 5539 5546 5553 5561 5569 5576 5583 5594 5594 5594 5593 5593 5590 5585 5580 5576 5570 5566 5562 5564 5563 5564 5564 5565 5566 5565 5567 5579 5581 5589 5595 5606 5618 5629 5628 5641
5439 5435 5436 5438 5445 5458 5469 5482 5498 5509 5520 5529 5537 5547 5554 5562 5569 5579 5586 5585 5588 5588 5587 5585 5580 5575 5573 5569 5565 5562 5564 5564 5563 5563 5564 5566 5568 5573 5580 5584 5590 5595 5608 5614 5620 5629 5633
5435 5433 5435 5438 5444 5457 5466 5481 5496 5507 5516 5519 5530 5542 5548 5556 5564 5574 5578 5580 5582 5583 5583 5581 5577 5574 5571 5570 5568 5568 5569 5569 5567 5565 5565 5567 5571 5575 5579 5585 5588 5595 5604 5614 5624 5627 5638
5432 5431 5434 5441 5447 5455 5464 5479 5491 5501 5510 5517 5528 5535 5543 5549 5561 5567 5571 5575 5577 5578 5580 5576 5574 5574 5571 5571 5570 5568 5569 5570 5569 5568 5567 5570 5574 5580 5586 5590 5597 5606 5611 5616 5615 5629 5640
5430 5427 5433 5442 5448 5453 5465 5478 5486 5493 5508 5517 5525 5531 5542 5550 5557 5561 5566 5570 5572 5574 5575 5573 5571 5571 5573 5573 5573 5572 5574 5573 5574 5575 5575 5577 5581 5586 5588 5592 5598 5602 5611 5614 5622 5630 5642
5430 5430 5435 5442 5451 5458 5466 5477 5484 5491 5501 5513 5520 5528 5536 5544 5550 5556 5561 5565 5567 5569 5570 5571 5569 5568 5571 5575 5575 5575 5575 5576 5577 5577 5578 5578 5579 5585 5590 5596 5601 5606 5613 5618 5624 5635 5641
5432 5435 5439 5444 5450 5458 5465 5475 5483 5489 5494 5508 5514 5524 5532 5539 5546 5551 5555 5559 5562 5564 5566 5568 5565 5567 5570 5573 5575 5576 5579 5579 5580 5583 5584 5586 5588 5593 5596 5601 5604 5609 5616 5619 5628 5634 5639
5431 5434 5439 5445 5450 5458 5466 5475 5483 5492 5500 5506 5513 5521 5529 5535 5542 5547 5550 5554 5557 5560 5562 5564 5564 5564 5568 5571 5574 5575 5577 5580 5582 5587 5590 5590 5594 5597 5601 5605 5609 5614 5618 5625 5631 5634 5638
5428 5430 5438 5443 5449 5457 5465 5473 5481 5488 5496 5504 5510 5517 5524 5532 5537 5541 5547 5550 5552 5555 5557 5559 5561 5564 5564 5566 5571 5572 5575 5580 5583 5585 5590 5594 5596 5600 5604 5608 5613 5617 5621 5625 5629 5633 5635
5424 5425 5433 5440 5448 5455 5464 5473 5481 5489 5495 5501 5507 5514 5521 5528 5534 5539 5543 5545 5548 5551 5552 5553 5555 5559 5562 5565 5568 5570 5572 5578 5583 5586 5591 5594 5597 5601 5605 5608 5611 5616 5619 5623 5626 5629 5632
5420 5423 5431 5437 5444 5453 5463 5471 5479 5486 5492 5498 5506 5511 5518 5526 5531 5535 5538 5541 5544 5546 5547 5548 5550 5555 5559 5563 5567 5570 5572 5576 5580 5583 5588 5592 5596 5601 5603 5607 5611 5614 5617 5620 5622 5627 5626
5414 5419 5427 5435 5442 5450 5460 5470 5477 5483 5488 5496 5503 5509 5516 5523 5527 5531 5534 5537 5541 5543 5544 5545 5548 5552 5556 5560 5565 5569 5573 5576 5580 5583 5586 5591 5594 5598 5602 5606 5611 5611 5614 5617 5619 5621 5623
5410 5415 5422 5430 5439 5448 5458 5467 5474 5480 5487 5495 5501 5506 5513 5520 5525 5527 5531 5534 5537 5539 5542 5543 5546 5551 5555 5559 5565 5567 5571 5575 5579 5582 5585 5589 5594 5598 5601 5604 5605 5607 5610 5613 5615 5618 5619